SCD 1

Last updated on Mon Sep 07 2026 00:02:44 GMT+0000 (Coordinated Universal Time)

1 22490U 93009B 26249.52238263 .00000291 00000+0 28714-4 0 9999 2 22490 24.9702 65.3665 0041726 278.9813 117.9552 14.46146696772904
UTC large
Height (km)
Speed (km/s)
/
Latitude / Longitude
Inclination (degrees)
Orbital Period (minutes)
Azimuth
Elevation
Range (km)
Doppler Factor

Next 0 passes for location: London (51.5072 / 0.1276)

No passes found over London.
SCD 1